TimeCST,TemperatureF,Dew PointF,Humidity,Sea Level PressureIn,VisibilityMPH,Wind Direction,Wind SpeedMPH,Gust SpeedMPH,PrecipitationIn,Events,Conditions,WindDirDegrees,DateUTC
12:53 AM,43.0,30.0,60,30.27,10.0,Calm,Calm,-,N/A,,Clear,0,2013-03-03 06:53:00
1:53 AM,39.9,28.9,65,30.27,10.0,Calm,Calm,-,N/A,,Clear,0,2013-03-03 07:53:00
2:53 AM,37.9,28.9,70,30.25,10.0,Calm,Calm,-,N/A,,Clear,0,2013-03-03 08:53:00
3:53 AM,39.0,28.9,67,30.23,10.0,WNW,3.5,-,N/A,,Clear,290,2013-03-03 09:53:00
4:53 AM,37.9,30.9,76,30.23,10.0,Calm,Calm,-,N/A,,Clear,0,2013-03-03 10:53:00
6:53 AM,36.0,28.0,73,30.25,10.0,Calm,Calm,-,N/A,,Clear,0,2013-03-03 12:53:00
7:53 AM,41.0,30.9,67,30.25,10.0,Calm,Calm,-,N/A,,Clear,0,2013-03-03 13:53:00
8:53 AM,48.9,28.9,46,30.26,10.0,Calm,Calm,-,N/A,,Clear,0,2013-03-03 14:53:00
9:53 AM,55.9,34.0,44,30.24,10.0,Variable,3.5,-,N/A,,Clear,0,2013-03-03 15:53:00
10:53 AM,62.1,34.0,35,30.21,10.0,South,8.1,-,N/A,,Clear,180,2013-03-03 16:53:00
11:53 AM,64.9,34.0,32,30.18,10.0,SSW,8.1,-,N/A,,Clear,200,2013-03-03 17:53:00
12:53 PM,70.0,36.0,29,30.12,10.0,South,15.0,19.6,N/A,,Clear,180,2013-03-03 18:53:00
1:53 PM,73.0,34.0,24,30.08,10.0,South,12.7,25.3,N/A,,Clear,170,2013-03-03 19:53:00
2:53 PM,75.0,34.0,22,30.04,10.0,SSW,12.7,19.6,N/A,,Clear,200,2013-03-03 20:53:00
3:53 PM,77.0,32.0,19,30.01,10.0,South,18.4,24.2,N/A,,Clear,180,2013-03-03 21:53:00
4:53 PM,77.0,30.9,19,29.97,10.0,South,13.8,-,N/A,,Clear,170,2013-03-03 22:53:00
5:53 PM,75.0,30.0,19,29.96,10.0,South,10.4,-,N/A,,Clear,170,2013-03-03 23:53:00
6:53 PM,68.0,30.9,25,29.97,10.0,SSE,8.1,-,N/A,,Clear,160,2013-03-04 00:53:00
7:53 PM,66.0,41.0,40,29.97,10.0,SE,16.1,24.2,N/A,,Clear,140,2013-03-04 01:53:00
8:53 PM,62.1,43.0,50,29.97,10.0,SSE,16.1,21.9,N/A,,Clear,150,2013-03-04 02:53:00
9:53 PM,60.1,41.0,49,29.97,10.0,SSE,12.7,-,N/A,,Clear,160,2013-03-04 03:53:00
10:53 PM,57.0,42.1,57,29.96,10.0,SSE,8.1,-,N/A,,Clear,160,2013-03-04 04:53:00
11:53 PM,55.9,43.0,62,29.95,10.0,SSE,6.9,-,N/A,,Clear,160,2013-03-04 05:53:00